Date String (YYYY-MM-DD hh:mm:ss) UTC,Instrument flags,Ambient pressure (hPa),Sample flow (lpm),Bypass flow (lpm),Sample temperature (°C),Ambient temperature (°C),ASC tube jacket temperature (°C),LED temperature (°C),Box temperature (°C),Sample RH (%),Span deviation,Mass concentration (μg/m³),Mass concentration (μg/m³),Mass concentration (μg/m³)
DateTimeUTC,F1_M11,P_M11,Q1_M11,Q2_M11,T1_M11,T2_M11,T3_M11,T4_M11,T5_M11,U1_M11,ZSPAN_M11,X0_M11,X2_M11,X1_M11
2021-09-09 05:00:00,,0831.7,4.99,0.00,29.5,28.3,00.0,38.6,31.2,18.4,0001.7,0049.08,0031.65,0029.30
2021-09-09 05:01:00,,0831.7,5.02,0.00,29.5,28.4,00.0,38.6,31.3,18.4,0001.7,0047.51,0031.57,0029.22
2021-09-09 05:02:00,,0831.7,5.01,0.00,29.6,28.5,00.0,38.6,31.3,18.3,0001.3,0046.88,0031.47,0029.11
2021-09-09 05:03:00,,0831.7,4.99,0.00,29.6,28.6,00.0,38.6,31.4,18.3,0001.3,0046.20,0031.34,0028.96
2021-09-09 05:04:00,,0831.7,5.00,0.00,29.6,28.7,00.0,38.6,31.4,18.3,0000.9,0045.70,0031.20,0028.84
2021-09-09 05:05:00,,0831.7,5.01,0.00,29.7,28.7,00.0,38.6,31.5,18.2,0001.0,0045.31,0031.02,0028.70
2021-09-09 05:06:00,,0831.7,5.00,0.00,29.7,28.8,00.0,38.7,31.5,18.3,0001.3,0046.44,0030.91,0028.58
2021-09-09 05:07:00,,0831.7,5.01,0.00,29.7,28.8,00.0,38.7,31.6,18.2,0001.5,0045.37,0030.77,0028.47
2021-09-09 05:08:00,,0831.7,5.00,0.00,29.8,28.9,00.0,38.7,31.6,18.2,0001.4,0045.32,0030.66,0028.39
2021-09-09 05:09:00,,0831.7,5.00,0.00,29.8,28.9,00.0,38.7,31.7,18.1,0001.5,0046.29,0030.63,0028.39
2021-09-09 05:10:00,,0831.7,5.01,0.00,29.8,28.5,00.0,38.8,31.5,18.1,0001.7,0046.09,0030.68,0028.37
2021-09-09 05:11:00,,0831.7,4.99,0.00,29.7,26.6,00.0,38.7,31.1,18.2,0001.8,0047.01,0030.66,0028.31
2021-09-09 05:12:00,,0831.8,5.01,0.00,29.6,26.2,00.0,38.7,30.9,18.4,0001.8,0047.84,0030.62,0028.23
2021-09-09 05:13:00,,0831.7,5.00,0.00,29.5,26.5,00.0,38.7,30.9,18.4,0001.9,0047.62,0030.49,0028.09
2021-09-09 05:14:00,,0831.8,5.00,0.00,29.4,26.9,00.0,38.6,31.0,18.4,0002.1,0047.11,0030.31,0027.97
2021-09-09 05:15:00,,0831.7,5.00,0.00,29.4,27.3,00.0,38.6,31.0,18.3,0002.3,0047.63,0030.22,0027.85
2021-09-09 05:16:00,,0831.7,4.99,0.00,29.4,27.6,00.0,38.6,31.1,18.2,0002.5,0047.79,0030.02,0027.64
2021-09-09 05:17:00,,0831.7,5.00,0.00,29.5,27.8,00.0,38.6,31.2,18.2,0002.5,0047.29,0029.80,0027.44
2021-09-09 05:18:00,,0831.7,5.00,0.00,29.5,28.1,00.0,38.6,31.2,18.2,0002.5,0047.14,0029.66,0027.27
2021-09-09 05:19:00,,0831.7,5.01,0.00,29.5,28.2,00.0,38.6,31.3,18.1,0002.4,0047.62,0029.49,0027.07
2021-09-09 05:20:00,,0831.7,5.00,0.00,29.5,28.3,00.0,38.6,31.3,18.1,0002.4,0047.02,0029.35,0026.89
2021-09-09 05:21:00,,0831.7,4.99,0.00,29.6,28.5,00.0,38.6,31.3,18.1,0002.1,0047.23,0029.18,0026.71
2021-09-09 05:22:00,,0831.7,5.01,0.00,29.6,28.5,00.0,38.6,31.4,18.1,0001.9,0047.50,0029.02,0026.58
2021-09-09 05:23:00,,0831.7,5.00,0.00,29.7,28.6,00.0,38.7,31.4,18.1,0001.7,0046.14,0028.80,0026.49
2021-09-09 05:24:00,,0831.7,5.01,0.00,29.7,28.7,00.0,38.7,31.5,18.1,0002.1,0046.66,0028.76,0026.49
2021-09-09 05:25:00,,0831.7,5.00,0.00,29.7,28.8,00.0,38.7,31.5,18.0,0002.2,0047.99,0028.82,0026.51
2021-09-09 05:26:00,,0831.7,5.02,0.00,29.7,28.8,00.0,38.7,31.5,18.0,0002.2,0047.93,0028.73,0026.47
2021-09-09 05:27:00,,0831.7,4.98,0.00,29.8,28.9,00.0,38.7,31.6,18.0,0001.9,0048.02,0028.75,0026.53
2021-09-09 05:28:00,,0831.7,4.99,0.00,29.8,28.9,00.0,38.8,31.6,17.9,0001.6,0047.47,0028.78,0026.55
2021-09-09 05:29:00,,0831.7,5.00,0.00,29.8,28.9,00.0,38.8,31.6,17.9,0001.6,0047.00,0028.79,0026.55
2021-09-09 05:30:00,,0831.6,5.01,0.00,29.9,28.8,00.0,38.8,31.6,17.8,0001.9,0046.06,0028.83,0026.57
2021-09-09 05:31:00,,0831.6,5.00,0.00,29.8,27.1,00.0,38.8,31.2,17.9,0002.1,0046.24,0028.86,0026.57
2021-09-09 05:32:00,,0831.6,5.00,0.00,29.6,26.2,00.0,38.8,31.0,18.0,0002.1,0046.42,0028.84,0026.55
2021-09-09 05:33:00,,0831.6,4.99,0.00,29.5,26.4,00.0,38.7,30.9,18.1,0002.2,0046.02,0028.82,0026.50
2021-09-09 05:34:00,,0831.6,5.00,0.00,29.5,26.8,00.0,38.7,31.0,18.2,0002.5,0046.86,0028.77,0026.41
2021-09-09 05:35:00,,0831.6,4.99,0.00,29.5,27.2,00.0,38.7,31.0,18.2,0002.3,0045.82,0028.70,0026.34
2021-09-09 05:36:00,,0831.6,5.01,0.00,29.5,27.5,00.0,38.7,31.1,18.1,0002.4,0045.90,0028.62,0026.26
2021-09-09 05:37:00,,0831.6,4.98,0.00,29.5,27.8,00.0,38.6,31.2,18.1,0002.5,0046.34,0028.57,0026.21
2021-09-09 05:38:00,,0831.6,5.01,0.00,29.5,28.0,00.0,38.6,31.2,18.1,0002.7,0046.93,0028.54,0026.18
2021-09-09 05:39:00,,0831.6,4.99,0.00,29.5,28.2,00.0,38.6,31.3,18.1,0002.8,0047.07,0028.52,0026.17
2021-09-09 05:40:00,,0831.6,5.01,0.00,29.6,28.3,00.0,38.6,31.3,18.1,0002.8,0046.54,0028.43,0026.14
2021-09-09 05:41:00,,0831.6,5.00,0.00,29.6,28.4,00.0,38.7,31.4,18.1,0002.7,0047.10,0028.32,0026.12
2021-09-09 05:42:00,,0831.5,4.99,0.00,29.6,28.5,00.0,38.7,31.4,18.1,0002.9,0046.77,0028.27,0026.14
2021-09-09 05:43:00,,0831.6,5.01,0.00,29.7,28.6,00.0,38.7,31.4,18.0,0002.8,0045.66,0028.25,0026.16
2021-09-09 05:44:00,,0831.5,5.00,0.00,29.7,28.6,00.0,38.7,31.5,18.0,0002.8,0044.77,0028.28,0026.20
2021-09-09 05:45:00,,0831.6,4.99,0.00,29.7,28.7,00.0,38.7,31.5,18.0,0002.9,0044.16,0028.34,0026.22
2021-09-09 05:46:00,,0831.6,5.00,0.00,29.7,28.7,00.0,38.7,31.5,17.9,0003.1,0044.44,0028.42,0026.22
2021-09-09 05:47:00,,0831.6,5.01,0.00,29.8,28.8,00.0,38.8,31.6,17.9,0002.8,0044.12,0028.48,0026.24
2021-09-09 05:48:00,,0831.7,5.00,0.00,29.8,28.8,00.0,38.8,31.6,17.8,0002.8,0043.29,0028.61,0026.29
2021-09-09 05:49:00,,0831.7,4.99,0.00,29.8,28.9,00.0,38.8,31.6,17.8,0002.8,0042.55,0028.68,0026.31
2021-09-09 05:50:00,,0831.6,5.01,0.00,29.9,28.9,00.0,38.8,31.7,17.8,0002.8,0041.80,0028.64,0026.30
2021-09-09 05:51:00,,0831.6,5.00,0.00,29.9,28.9,00.0,38.8,31.7,17.8,0003.0,0042.18,0028.66,0026.29
2021-09-09 05:52:00,,0831.6,5.00,0.00,29.9,27.8,00.0,38.8,31.4,17.8,0002.7,0041.36,0028.68,0026.29
2021-09-09 05:53:00,,0831.5,5.01,0.00,29.7,26.3,00.0,38.8,31.0,18.0,0002.7,0040.81,0028.70,0026.25
2021-09-09 05:54:00,,0831.5,4.99,0.00,29.6,26.3,00.0,38.8,31.0,18.1,0002.6,0041.18,0028.62,0026.21
2021-09-09 05:55:00,,0831.5,5.00,0.00,29.5,26.7,00.0,38.8,31.0,18.2,0002.5,0041.32,0028.50,0026.16
2021-09-09 05:56:00,,0831.6,5.01,0.00,29.5,27.1,00.0,38.7,31.1,18.2,0002.6,0041.80,0028.42,0026.12
2021-09-09 05:57:00,,0831.5,4.99,0.00,29.5,27.4,00.0,38.7,31.1,18.1,0002.4,0041.85,0028.23,0026.02
2021-09-09 05:58:00,,0831.5,5.00,0.00,29.5,27.7,00.0,38.7,31.2,18.1,0002.5,0040.74,0028.06,0025.89
2021-09-09 05:59:00,,0831.5,4.99,0.00,29.5,27.9,00.0,38.7,31.2,18.2,0002.4,0040.75,0027.91,0025.82
